Location: Newark
(42.9260°N, 89.3850°W)
Time: 23:26:22
(UTC+00:00)

N. Korean satellite - Visible Passes

Search period start: 09 December 2019 00:00
Search period end: 19 December 2019 00:00
Orbit: 456 x 506 km, 97.2° (Epoch: 09 December)

Date Brightness Start Highest point End Pass type
(mag) Time Alt. Az. Time Alt. Az. Time Alt. Az.
09 Dec 6.8 11:45:32 10° NNE 11:49:05 70° E 11:52:33 10° S visible
09 Dec 9.7 23:55:45 10° SW 23:58:24 19° W 00:01:05 10° NW visible
10 Dec 8.4 11:20:24 10° NNE 11:23:35 31° E 11:26:42 10° SSE visible
10 Dec 8.4 23:29:24 10° SSW 23:32:51 36° W 23:36:18 10° NNW visible
11 Dec 9.7 10:55:49 10° NE 10:57:59 15° E 11:00:07 10° SE visible
11 Dec 7.3 12:28:20 10° N 12:31:29 31° WNW 12:34:34 10° SW visible
11 Dec 6.8 23:03:40 10° S 23:07:23 80° WSW 23:11:05 10° NNW visible
12 Dec 6.4 12:02:38 10° N 12:06:07 67° WNW 12:09:33 10° SSW visible
13 Dec 10.1 00:14:17 10° WSW 00:15:37 12° W 00:16:59 10° WNW visible
13 Dec 7.3 11:37:15 10° NNE 11:40:41 53° E 11:44:04 10° S visible
13 Dec 9.3 23:47:01 10° SSW 23:50:00 23° W 23:52:58 10° NW visible
14 Dec 8.9 11:12:14 10° NE 11:15:09 24° E 11:18:02 10° SSE visible
14 Dec 7.9 12:45:50 10° NNW 12:48:24 19° WNW 12:50:57 10° WSW visible
14 Dec 7.8 23:20:54 10° S 23:24:28 46° W 23:28:01 10° NNW visible
15 Dec 9.9 10:48:04 10° ENE 10:49:31 12° E 10:50:57 10° ESE visible
15 Dec 6.9 12:19:50 10° N 12:23:07 38° WNW 12:26:20 10° SW visible
15 Dec 6.6 22:55:20 10° SSE 22:59:01 81° ENE 23:02:41 10° N visible
16 Dec 6.4 11:54:14 10° N 11:57:44 87° WNW 12:01:11 10° SSW visible
17 Dec 9.9 00:05:07 10° SW 00:07:11 14° W 00:09:15 10° WNW visible
17 Dec 7.8 11:28:57 10° NNE 11:32:15 40° E 11:35:31 10° S visible
17 Dec 8.9 23:38:22 10° SSW 23:41:35 28° W 23:44:46 10° NW visible
18 Dec 9.3 11:04:06 10° NE 11:06:41 19° E 11:09:14 10° SE visible
18 Dec 7.6 12:37:13 10° NNW 12:40:03 24° WNW 12:42:51 10° SW visible
18 Dec 7.3 23:12:26 10° S 23:16:04 59° W 23:19:41 10° NNW visible
